Lihue, HI

1:46 AM HST on July 21, 2017 (GMT -1000)
Lihue

Weather History for PHLI - May, 2014

Change the Weather History Date:

Friday, May 2, 2014

  Actual Average Record
Temperature  
Mean Temperature 76 °F 75 °F  
Max Temperature 81 °F 80 °F 86 °F (2017)
Min Temperature 70 °F 69 °F 59 °F (1989)
Degree Days  
Heating Degree Days 0 0  
Month to date heating degree days 0 0  
Since 1 July heating degree days 0 0  
Cooling Degree Days 11 10  
Month to date cooling degree days 21 20  
Year to date cooling degree days 897 924  
Growing Degree Days 24 (Base 50)    
Moisture  
Dew Point 69 °F    
Average Humidity 80    
Maximum Humidity 90    
Minimum Humidity 69    
Precipitation  
Precipitation T in 0.08 in 2.05 in (1970)
Month to date precipitation T 0.16  
Year to date precipitation 12.98 13.93  
Snow  
Snow 0.00 in - - ()
Month to date snowfall 0.0  
Since 1 July snowfall 0.0  
Snow Depth 0.00 in    
Sea Level Pressure  
Sea Level Pressure 30.04 in    
Wind  
Wind Speed 10 mph (East)    
Max Wind Speed 14 mph    
Max Gust Speed 18 mph    
Visibility 10 miles    
Events Rain    
T = Trace of Precipitation, MM = Missing Value Source: NWS Daily Summary

Daily Weather History Graph

Daily Weather History Graph

Search for Another Location

Airport or City:

Trip Planner

Search our weather history database for the weather conditions in past years. The results will help you decide how hot, cold, wet, or windy it might be!

Date:

Astronomy

May. 02, 2014 Rise Set
Actual Time 6:04 AM HST 7:04 PM HST
Civil Twilight 5:41 AM HST 7:27 PM HST
Nautical Twilight 5:13 AM HST 7:55 PM HST
Astronomical Twilight 4:45 AM HST 8:23 PM HST
Moon 8:59 AM HST (5/2) 10:28 PM HST (5/2)
Length of Visible Light 13h 46m
Length of Day
12h 59m
Waxing Crescent, 14% of the Moon is Illuminated
May 2
Waxing Crescent
May 6
First Quarter
May 14
Full
May 21
Last Quarter
May 28
New

Hourly Weather History & Observations

Time (HST) Temp. Heat Index Dew Point Humidity Pressure Visibility Wind Dir Wind Speed Gust Speed Precip Events Conditions
12:53 AM 73.0 °F - 66.9 °F 81% 30.04 in 10.0 mi East 10.4 mph - N/A   Mostly Cloudy
1:53 AM 73.0 °F - 68.0 °F 84% 30.02 in 10.0 mi East 9.2 mph - N/A   Scattered Clouds
2:21 AM 73.4 °F - 68.0 °F 83% 30.02 in 10.0 mi East 9.2 mph - N/A   Mostly Cloudy
2:35 AM 73.4 °F - 68.0 °F 83% 30.01 in 10.0 mi East 8.1 mph - N/A   Scattered Clouds
2:53 AM 73.0 °F - 68.0 °F 84% 30.01 in 10.0 mi East 6.9 mph - N/A   Scattered Clouds
3:37 AM 73.4 °F - 69.8 °F 88% 30.00 in 10.0 mi East 10.4 mph - N/A   Overcast
3:53 AM 73.0 °F - 68.0 °F 84% 29.99 in 10.0 mi ENE 9.2 mph - N/A   Overcast
4:31 AM 73.4 °F - 68.0 °F 83% 30.00 in 10.0 mi East 8.1 mph - N/A   Mostly Cloudy
4:53 AM 73.0 °F - 68.0 °F 84% 29.99 in 10.0 mi ENE 8.1 mph - N/A   Mostly Cloudy
5:06 AM 71.6 °F - 68.0 °F 88% 30.00 in 10.0 mi East 6.9 mph - N/A   Partly Cloudy
5:46 AM 69.8 °F - 66.2 °F 88% 30.00 in 10.0 mi Calm Calm - N/A   Mostly Cloudy
5:53 AM 70.0 °F - 66.0 °F 87% 30.00 in 10.0 mi NW 3.5 mph - N/A   Scattered Clouds
6:09 AM 69.8 °F - 66.2 °F 88% 30.01 in 10.0 mi ENE 5.8 mph - N/A   Mostly Cloudy
6:53 AM 73.4 °F - 69.1 °F 86% 30.02 in 10.0 mi East 9.2 mph - N/A   Overcast
6:55 AM 73.4 °F - 69.8 °F 88% 30.02 in 10.0 mi East 9.2 mph - N/A   Overcast
7:53 AM 73.4 °F - 69.1 °F 86% 30.03 in 10.0 mi ENE 10.4 mph - N/A   Overcast
8:00 AM 75.2 °F - 69.8 °F 83% 30.04 in 10.0 mi ENE 10.4 mph - N/A   Partly Cloudy
8:53 AM 78.1 °F - 70.0 °F 76% 30.04 in 10.0 mi ENE 10.4 mph - N/A   Scattered Clouds
9:53 AM 77.0 °F - 70.0 °F 79% 30.04 in 10.0 mi ENE 10.4 mph - N/A   Mostly Cloudy
10:28 AM 78.8 °F - 69.8 °F 74% 30.06 in 10.0 mi East 10.4 mph - N/A   Mostly Cloudy
10:53 AM 79.0 °F - 70.0 °F 74% 30.05 in 10.0 mi East 11.5 mph - N/A   Mostly Cloudy
11:53 AM 80.1 °F 83.2 °F 70.0 °F 71% 30.04 in 10.0 mi East 12.7 mph - N/A   Scattered Clouds
12:53 PM 78.1 °F - 70.0 °F 76% 30.04 in 10.0 mi East 12.7 mph - N/A   Overcast
1:09 PM 78.8 °F - 69.8 °F 74% 30.04 in 10.0 mi East 11.5 mph - N/A   Overcast
1:53 PM 78.1 °F - 70.0 °F 76% 30.02 in 10.0 mi East 10.4 mph - N/A   Overcast
2:24 PM 78.8 °F - 71.6 °F 78% 30.02 in 10.0 mi East 11.5 mph - N/A   Mostly Cloudy
2:53 PM 80.1 °F 83.8 °F 72.0 °F 76% 30.01 in 10.0 mi East 11.5 mph - N/A   Mostly Cloudy
3:53 PM 77.0 °F - 70.0 °F 79% 30.01 in 10.0 mi SE 8.1 mph - 0.00 in   Overcast
4:53 PM 75.9 °F - 68.0 °F 76% 30.01 in 10.0 mi ESE 5.8 mph - N/A   Mostly Cloudy
5:53 PM 75.9 °F - 68.0 °F 76% 30.03 in 10.0 mi SE 4.6 mph - N/A   Mostly Cloudy
6:53 PM 75.0 °F - 69.1 °F 82% 30.05 in 10.0 mi South 4.6 mph - N/A   Mostly Cloudy
7:53 PM 73.9 °F - 69.1 °F 85% 30.07 in 10.0 mi Calm Calm - N/A   Scattered Clouds
8:53 PM 73.4 °F - 68.0 °F 83% 30.09 in 10.0 mi Calm Calm - N/A   Mostly Cloudy
8:57 PM 73.4 °F - 68.0 °F 83% 30.09 in 10.0 mi Calm Calm - N/A   Mostly Cloudy
9:53 PM 73.4 °F - 68.2 °F 84% 30.09 in 10.0 mi NNW 3.5 mph - N/A   Mostly Cloudy
10:19 PM - - - N/A% 30.10 in 10.0 mi North 5.8 mph - N/A   Mostly Cloudy
10:53 PM - - - N/A% 30.10 in 7.0 mi NNW 5.8 mph - 0.00 in Rain Light Rain
11:37 PM - - - N/A% 30.09 in 10.0 mi ENE 9.2 mph - 0.00 in   Overcast
11:53 PM 73.4 °F - 71.1 °F 92% 30.08 in 10.0 mi East 8.1 mph - 0.00 in   Overcast